This is the latest recevied weather packets stored in our database for station/object KK7KHO. If no packets are shown the sender has not sent any weather packets the latest 10 day(s).
| Time | Temp. | Humidity | Pressure | Rain* | Wind** | Luminosity | Snow |
|---|---|---|---|---|---|---|---|
| 1777928405 | 25.56° C | 51% | 1009.5 hPa | 0 mm | - | 656 W/m² | - |
| 1777928103 | 25° C | 50% | 1009.4 hPa | 0 mm | - | 657 W/m² | - |
| 1777927801 | 25° C | 52% | 1009.5 hPa | 0 mm | - | 669 W/m² | - |
| 1777927498 | 24.44° C | 50% | 1009.5 hPa | 0 mm | - | 641 W/m² | - |
| 1777927197 | 23.89° C | 54% | 1009.5 hPa | 0 mm | - | 660 W/m² | - |
| 1777926895 | 24.44° C | 50% | 1009.5 hPa | 0 mm | - | 655 W/m² | - |
| 1777926591 | 23.89° C | 51% | 1009.6 hPa | 0 mm | - | 587 W/m² | - |
| 1777926287 | 23.89° C | 52% | 1009.6 hPa | 0 mm | - | 555 W/m² | - |
| 1777925984 | 23.89° C | 53% | 1009.6 hPa | 0 mm | - | 607 W/m² | - |
| 1777925681 | 24.44° C | 53% | 1009.7 hPa | 0 mm | - | 628 W/m² | - |
| 1777925379 | 24.44° C | 51% | 1009.7 hPa | 0 mm | - | 666 W/m² | - |
| 1777925076 | 23.89° C | 54% | 1009.8 hPa | 0 mm | - | 636 W/m² | - |
| 1777924772 | 23.33° C | 52% | 1009.7 hPa | 0 mm | - | 643 W/m² | - |
| 1777924468 | 25° C | 50% | 1009.8 hPa | 0 mm | - | 664 W/m² | - |
| 1777924165 | 23.89° C | 52% | 1009.7 hPa | 0 mm | - | 646 W/m² | - |
| 1777923861 | 24.44° C | 54% | 1009.7 hPa | 0 mm | - | 663 W/m² | - |
| 1777923557 | 23.89° C | 53% | 1009.6 hPa | 0 mm | - | 675 W/m² | - |
| 1777923254 | 24.44° C | 51% | 1009.7 hPa | 0 mm | - | 662 W/m² | - |
| 1777922953 | 23.89° C | 58% | 1009.7 hPa | 0 mm | - | 651 W/m² | - |
| 1777922650 | 23.33° C | 55% | 1009.6 hPa | 0 mm | - | 666 W/m² | - |
| 1777922349 | 23.89° C | 58% | 1009.7 hPa | 0 mm | - | 606 W/m² | - |
| 1777922046 | 22.78° C | 59% | 1009.6 hPa | 0 mm | - | 693 W/m² | - |
| 1777921741 | 23.33° C | 58% | 1009.6 hPa | 0 mm | - | 626 W/m² | - |
| 1777921437 | 22.78° C | 56% | 1009.7 hPa | 0 mm | - | 629 W/m² | - |
| 1777921134 | 22.22° C | 59% | 1009.9 hPa | 0 mm | - | 585 W/m² | - |
* Rain latest hour (hover to see other rain measurements)
** Current wind speed in m/s (hover to see current wind gust speed)